[[{"header":{"parameterUnit":"m.s-1","parameterCategory":1,"la1":30.2991,"la2":30.254,"lo1":-89.0895,"lo2":-89.0444,"dy":0.0017,"dx":0.0017,"nx":28,"ny":28,"refTime":"2025-03-16T21:00:00:Z","depth":0,"parameterNumber":2,"parameterNumberName":"U-component_of_WINDS"},"data":[0,0,0,0,0,0,0,0,0,0,0,0,0,0,0,0,0,0,0,0,0,0,0,0,0,0,0,0,0,0,0,0,0,0,0,0,0,0,0,0,0,0,0,0,0,0,0,0,0,0,0,0,0,0,0,0,0,0,6.6684,6.6685,0,6.6744,6.6745,6.6745,6.6692,6.6689,6.6687,6.6685,6.6747,6.675,6.6754,0,0,0,0,0,0,0,0,0,0,0,0,0,6.6525,6.6528,6.6684,6.6685,6.6685,6.6744,6.6745,6.6746,6.6692,6.6689,6.6687,6.6684,6.6746,6.675,6.6754,0,0,0,0,0,0,0,0,0,0,0,0,0,6.659,6.6529,6.6684,6.6666,6.6665,6.6744,6.6745,6.6746,6.6693,6.6689,6.6686,6.6683,6.6744,6.6749,6.6755,6.6855,0,0,6.6772,6.6774,0,0,0,0,0,0,0,0,6.6586,6.6596,6.6668,6.6667,6.6666,6.6707,6.6711,6.6782,6.6693,6.6682,6.6685,6.6681,6.6736,6.6742,6.6761,6.6858,6.686,6.6772,6.6776,6.6778,6.678,0,0,0,0,0,0,0,6.6582,6.6593,6.6708,6.6669,6.6668,6.6655,6.6661,6.6724,6.6727,6.6683,6.6679,6.6687,6.6735,6.6755,6.6762,6.6861,6.6772,6.6777,6.678,6.6783,6.7046,6.705,0,0,0,0,0,0,6.6579,6.659,6.6706,6.6709,6.6617,6.6661,6.6667,6.6697,6.6726,6.6727,6.669,6.6684,6.6748,6.6755,6.6764,6.6884,6.6778,6.6783,6.6786,6.7042,6.7047,6.7051,0,0,0,0,0,0,6.6576,6.659,6.6703,6.6649,6.6662,6.6667,6.6701,6.67,6.672,6.6731,6.6731,6.671,6.6745,6.6756,6.6833,6.6886,6.6786,6.6791,6.7038,6.7044,6.7049,6.7126,0,0,0,0,0,0,6.6572,6.6589,6.6627,6.665,6.6665,6.6772,6.6704,6.6704,6.673,6.6723,6.675,6.6751,6.6744,6.6825,6.6839,6.6892,6.6795,6.7033,6.7041,6.7047,6.7119,6.7133,6.7146,0,0,0,0,0,6.6566,6.6646,6.6629,6.6643,6.6712,6.6775,6.6784,6.6773,6.6734,6.6773,6.678,6.6751,6.6878,6.6834,6.6848,6.6904,6.703,6.7039,6.7047,6.7112,6.713,6.7145,0,0,0,0,0,0,6.6628,6.6648,6.663,6.6719,6.6746,6.6766,6.6813,6.6792,6.683,6.6822,6.6807,6.6814,6.6896,6.6907,6.6858,6.7003,6.6948,6.6959,6.6993,6.701,6.7023,6.7019,6.68,0,0,0,0,0,6.6652,6.6701,6.6716,6.6793,6.6807,6.6808,6.6835,6.6825,6.6852,6.6863,6.6875,6.6903,6.6949,6.698,6.7023,6.712,6.7126,6.7165,6.7179,6.719,6.7201,6.7255,6.7273,6.7078,6.7078,6.7078,0,0,6.6702,6.6719,6.6751,6.6806,6.6825,6.6877,6.6818,6.6875,6.6913,6.6871,6.6946,6.6956,6.6986,6.7074,6.7114,6.7086,6.7256,6.7201,6.7209,6.7214,6.7265,6.7284,6.73,6.7084,6.7083,6.7082,0,0,6.682,6.6837,6.6905,6.6926,6.6956,6.6956,6.6973,6.6997,6.7002,6.7077,6.7047,6.7092,6.7172,6.7195,6.7217,6.7347,6.7322,6.7361,6.7432,6.7486,6.7501,6.7515,6.7563,6.758,6.7371,6.7372,6.7372,0,6.6879,6.6955,6.6942,6.7002,6.7028,6.6992,6.7061,6.7082,6.7125,6.7144,6.7113,6.7214,6.7231,6.7325,6.7357,6.7376,6.7395,6.7358,6.75,6.7513,6.7526,6.7571,6.7589,6.7376,6.7376,6.7375,6.7375,0,6.7027,6.708,6.7131,6.7175,6.7206,6.727,6.7267,6.7301,6.7288,6.7292,6.737,6.739,6.7437,6.7459,6.7446,6.7552,6.7534,6.7502,6.7446,6.7549,6.7592,6.7609,6.7383,6.7381,6.738,6.7379,0,0,6.7185,6.7222,6.7241,6.7261,6.7293,6.7334,6.7397,6.7444,6.7474,6.7505,6.7559,6.7628,6.7598,6.7624,6.7614,6.766,6.7764,6.7622,6.7623,6.7649,6.7884,6.791,6.793,6.7748,6.7751,6.7753,6.7882,0,6.7306,6.7416,6.7407,6.7511,6.7561,6.7529,6.7584,6.7611,6.7616,6.7661,6.7667,6.7717,6.7673,6.7689,6.7733,6.7742,6.7811,6.7732,6.7798,6.7801,6.7793,6.7952,6.7979,6.8099,6.7899,6.7901,6.7903,0,6.7462,6.7499,6.7609,6.7635,6.7656,6.7705,6.7749,6.7791,6.782,6.7821,6.7851,6.7834,6.7898,6.7841,6.7931,6.7877,6.7904,6.7913,6.7917,6.7924,6.7859,6.7965,6.8137,6.8156,6.7929,6.7927,6.7925,0,6.7569,6.7647,6.7723,6.7741,6.7773,6.7809,6.7824,6.785,6.7879,6.7917,6.7936,6.7981,6.8006,6.8042,6.8037,6.7995,6.813,6.8071,6.8134,6.8134,6.8164,6.8163,6.8345,6.8179,6.8179,6.8178,6.8178,0,6.7706,6.7775,6.7772,6.7819,6.7896,6.7885,6.7961,6.7972,6.7996,6.8045,6.8019,6.8066,6.8057,6.8104,6.8101,6.8178,6.8188,6.8192,6.8191,6.8195,6.8195,6.8213,6.8206,6.8183,6.8182,6.8181,6.818,0,6.7839,6.784,6.7921,6.7945,6.7953,6.8008,6.8029,6.8074,6.8078,6.8141,6.8155,6.8161,6.8216,6.8215,6.8276,6.8275,6.8369,6.8357,6.8359,6.8357,6.8421,6.8415,6.8623,6.865,6.8464,6.8466,6.8468,0,6.7928,6.798,6.801,6.8041,6.8058,6.8109,6.8139,6.8131,6.8163,6.8202,6.8243,6.8295,6.8336,6.8424,6.8435,6.8483,6.8473,6.8542,6.848,6.8484,6.8476,6.8474,6.848,6.8555,6.8557,6.8559,6.856,0,6.8085,6.8083,6.8127,6.8173,6.821,6.8245,6.8277,6.8305,6.83,6.8338,6.8393,6.8426,6.8489,6.8542,6.8588,6.8604,6.8582,6.858,6.8597,6.8603,6.8603,6.8606,6.8394,6.8575,6.8574,6.8572,6.8572,6.8571,6.82,6.8246,6.8274,6.8325,6.8349,6.838,6.8424,6.8434,6.848,6.8531,6.8523,6.8586,6.8616,6.8675,6.8696,6.8745,6.8721,6.8745,6.8752,6.8759,6.8767,6.8594,6.8753,6.8753,6.8752,6.8752,6.8751,0,6.8358,6.8375,6.8422,6.8468,6.8509,6.8484,6.8519,6.8555,6.861,6.864,6.8681,6.8746,6.8797,6.8812,6.8862,6.8899,6.889,6.8912,6.891,6.8915,6.8784,6.8765,6.8919,6.8919,6.8919,6.8919,6.8919,6.8919,6.8445,6.8522,6.8523,6.8612,6.8629,6.869,6.8712,6.8742,6.8765,6.8839,6.8881,6.8891,6.8915,6.8966,6.9013,6.9016,6.9036,6.9063,6.9063,6.8941,6.8924,6.8908,6.889,6.9067,6.9067,6.9189,6.919,6.9191]},{"header":{"parameterUnit":"m.s-1","parameterCategory":1,"la1":30.2991,"la2":30.254,"lo1":-89.0895,"lo2":-89.0444,"dy":0.0017,"dx":0.0017,"nx":28,"ny":28,"refTime":"2025-03-16T21:00:00:Z","depth":0,"parameterNumber":3,"parameterNumberName":"V-component_of_WINDS"},"data":[0,0,0,0,0,0,0,0,0,0,0,0,0,0,0,0,0,0,0,0,0,0,0,0,0,0,0,0,0,0,0,0,0,0,0,0,0,0,0,0,0,0,0,0,0,0,0,0,0,0,0,0,0,0,0,0,0,0,-2.7304,-2.7305,0,-2.7347,-2.7348,-2.7348,-2.7383,-2.7383,-2.7384,-2.7384,-2.7426,-2.7426,-2.7427,0,0,0,0,0,0,0,0,0,0,0,0,0,-2.7251,-2.7252,-2.7304,-2.7305,-2.7305,-2.7347,-2.7348,-2.7348,-2.7383,-2.7383,-2.7384,-2.7384,-2.7425,-2.7426,-2.7427,0,0,0,0,0,0,0,0,0,0,0,0,0,-2.7282,-2.7252,-2.7304,-2.7328,-2.733,-2.7347,-2.7348,-2.7348,-2.7383,-2.7383,-2.7384,-2.7384,-2.7425,-2.7426,-2.7427,-2.7424,0,0,-2.7431,-2.7431,0,0,0,0,0,0,0,0,-2.728,-2.7284,-2.7324,-2.7326,-2.7329,-2.736,-2.7344,-2.7374,-2.7383,-2.7363,-2.7384,-2.7385,-2.7403,-2.7406,-2.7413,-2.7426,-2.7427,-2.7431,-2.7432,-2.7432,-2.7433,0,0,0,0,0,0,0,-2.7278,-2.7282,-2.7321,-2.7324,-2.7327,-2.7336,-2.7341,-2.735,-2.7379,-2.7364,-2.7367,-2.7372,-2.7405,-2.7412,-2.7414,-2.7428,-2.7431,-2.7432,-2.7433,-2.7433,-2.7442,-2.7441,0,0,0,0,0,0,-2.7272,-2.728,-2.732,-2.7322,-2.7305,-2.7336,-2.7342,-2.735,-2.7379,-2.7384,-2.7371,-2.7373,-2.741,-2.7413,-2.7416,-2.7415,-2.7432,-2.7433,-2.7434,-2.7442,-2.7442,-2.7441,0,0,0,0,0,0,-2.7271,-2.7276,-2.7318,-2.7302,-2.7308,-2.7337,-2.7345,-2.735,-2.7357,-2.7385,-2.739,-2.7373,-2.741,-2.7414,-2.7422,-2.7417,-2.7434,-2.7435,-2.7443,-2.7442,-2.7441,-2.7411,0,0,0,0,0,0,-2.7269,-2.7275,-2.7274,-2.7302,-2.7309,-2.7323,-2.7345,-2.7351,-2.736,-2.7363,-2.7388,-2.7392,-2.7411,-2.742,-2.7423,-2.7419,-2.7436,-2.7443,-2.7442,-2.7442,-2.7413,-2.741,-2.7407,0,0,0,0,0,-2.7267,-2.7263,-2.7273,-2.7278,-2.7308,-2.7323,-2.7327,-2.7349,-2.7359,-2.7358,-2.7376,-2.7392,-2.7417,-2.7421,-2.7424,-2.742,-2.7444,-2.7443,-2.7442,-2.7414,-2.741,-2.7407,0,0,0,0,0,0,-2.7232,-2.7267,-2.7279,-2.7283,-2.73,-2.7329,-2.7328,-2.7344,-2.7358,-2.736,-2.7386,-2.7391,-2.7397,-2.7409,-2.7413,-2.7419,-2.7432,-2.7432,-2.741,-2.7407,-2.7404,-2.7401,-2.7437,0,0,0,0,0,-2.7225,-2.7234,-2.7264,-2.7265,-2.7273,-2.7299,-2.7306,-2.7323,-2.7341,-2.7348,-2.7366,-2.7382,-2.7394,-2.7401,-2.7414,-2.7415,-2.7422,-2.7414,-2.7411,-2.7409,-2.7408,-2.7411,-2.7409,-2.7438,-2.7438,-2.7438,0,0,-2.7209,-2.723,-2.7234,-2.7258,-2.7273,-2.7283,-2.7305,-2.7313,-2.7321,-2.7349,-2.7358,-2.7372,-2.7392,-2.7397,-2.74,-2.7408,-2.7402,-2.7407,-2.7405,-2.7406,-2.741,-2.7407,-2.7405,-2.7437,-2.7437,-2.7437,0,0,-2.7187,-2.7203,-2.7206,-2.7221,-2.7244,-2.7262,-2.7263,-2.729,-2.7301,-2.7311,-2.7332,-2.7341,-2.7361,-2.7375,-2.7385,-2.737,-2.7385,-2.7373,-2.7357,-2.736,-2.7358,-2.7356,-2.7352,-2.735,-2.7372,-2.7372,-2.7372,0,-2.7164,-2.718,-2.7205,-2.7214,-2.7224,-2.7252,-2.7255,-2.7269,-2.7294,-2.73,-2.7309,-2.7335,-2.7351,-2.736,-2.7357,-2.7364,-2.7366,-2.737,-2.7356,-2.7355,-2.7353,-2.7349,-2.7348,-2.7371,-2.7371,-2.7371,-2.7371,0,-2.7152,-2.7163,-2.7163,-2.7188,-2.7199,-2.7205,-2.7231,-2.7239,-2.7255,-2.7272,-2.7282,-2.7302,-2.732,-2.7323,-2.7337,-2.7335,-2.7339,-2.7352,-2.7366,-2.7349,-2.7345,-2.7344,-2.7369,-2.7369,-2.737,-2.737,0,0,-2.7106,-2.7148,-2.7147,-2.716,-2.7189,-2.7197,-2.7205,-2.7224,-2.723,-2.7247,-2.7254,-2.7272,-2.7284,-2.7295,-2.7312,-2.7314,-2.7303,-2.7326,-2.7327,-2.7322,-2.7303,-2.7293,-2.7291,-2.7313,-2.7313,-2.7313,-2.7301,0,-2.7089,-2.7104,-2.7129,-2.7136,-2.7147,-2.7175,-2.7182,-2.72,-2.7216,-2.7228,-2.7246,-2.7258,-2.7273,-2.728,-2.7284,-2.7303,-2.7299,-2.7304,-2.732,-2.732,-2.7314,-2.7289,-2.7279,-2.7267,-2.73,-2.73,-2.73,0,-2.7069,-2.7087,-2.7096,-2.7126,-2.7131,-2.7137,-2.7157,-2.7168,-2.7189,-2.7201,-2.7215,-2.7234,-2.7244,-2.7257,-2.7271,-2.7274,-2.7282,-2.7293,-2.7293,-2.7295,-2.7309,-2.7291,-2.7263,-2.7261,-2.7298,-2.7298,-2.7298,0,-2.7036,-2.7062,-2.7071,-2.7081,-2.7116,-2.7119,-2.7134,-2.7156,-2.7167,-2.7184,-2.7191,-2.7209,-2.7218,-2.7232,-2.7255,-2.7262,-2.7267,-2.7282,-2.7277,-2.7277,-2.7277,-2.7276,-2.725,-2.7282,-2.7282,-2.7282,-2.7282,0,-2.7013,-2.7018,-2.7057,-2.7063,-2.7069,-2.7097,-2.7103,-2.712,-2.714,-2.715,-2.7174,-2.7183,-2.7213,-2.7225,-2.7243,-2.7253,-2.7256,-2.7267,-2.7271,-2.7265,-2.7263,-2.727,-2.7272,-2.7281,-2.7281,-2.7281,-2.7281,0,-2.6977,-2.7003,-2.7015,-2.7048,-2.7056,-2.706,-2.7088,-2.7094,-2.7114,-2.7126,-2.713,-2.716,-2.7175,-2.72,-2.7222,-2.7235,-2.7241,-2.7249,-2.7234,-2.7237,-2.7232,-2.7232,-2.7209,-2.7208,-2.7239,-2.7239,-2.7239,0,-2.696,-2.6965,-2.6999,-2.7008,-2.7022,-2.7036,-2.7047,-2.7076,-2.7086,-2.7113,-2.7116,-2.7135,-2.715,-2.7174,-2.7197,-2.7215,-2.7224,-2.7215,-2.7226,-2.722,-2.7224,-2.7224,-2.7225,-2.7211,-2.7211,-2.7211,-2.721,0,-2.6929,-2.6943,-2.6959,-2.698,-2.6993,-2.701,-2.7029,-2.7035,-2.7067,-2.7078,-2.7095,-2.7108,-2.7132,-2.715,-2.7171,-2.7186,-2.7203,-2.7207,-2.7207,-2.72,-2.7191,-2.7197,-2.7227,-2.7207,-2.7207,-2.7207,-2.7208,-2.7208,-2.6903,-2.6909,-2.6935,-2.6952,-2.697,-2.6987,-2.6996,-2.7017,-2.7032,-2.7055,-2.7071,-2.7087,-2.711,-2.7141,-2.7155,-2.7169,-2.7176,-2.7176,-2.7176,-2.7176,-2.7174,-2.7189,-2.7172,-2.7173,-2.7173,-2.7173,-2.7173,0,-2.6874,-2.6892,-2.6908,-2.6935,-2.6949,-2.6966,-2.6988,-2.6998,-2.7013,-2.7033,-2.7049,-2.707,-2.7088,-2.7113,-2.7133,-2.7139,-2.7148,-2.7143,-2.7143,-2.7146,-2.7165,-2.7163,-2.7136,-2.7136,-2.7136,-2.7136,-2.7136,-2.7136,-2.6861,-2.6873,-2.6889,-2.691,-2.6929,-2.6946,-2.6957,-2.6974,-2.6991,-2.7013,-2.7029,-2.7046,-2.7069,-2.7091,-2.7108,-2.7115,-2.7122,-2.7115,-2.7124,-2.7141,-2.7145,-2.7148,-2.7147,-2.7116,-2.7116,-2.7105,-2.7104,-2.7104]}]]